Regional Weather Roundup
Issued by NWS

Home | Current Version | Previous Version | Text Only | Print | Product List | Glossary Off
Versions: 1 2 3 4 5 6 7 8 9 10 11 12 13 14 15 16 17 18 19 20 21 22 23 24 25 26 27 28 29 30 31 32 33 34 35 36 37 38 39 40 41 42 43 44 45 46 47 48 49 50

174
ASUS45 KCYS 160410
RWRWY

WYOMING REGIONAL WEATHER ROUNDUP
NATIONAL WEATHER SERVICE CHEYENNE WY
900 PM MST SUN JAN 15 2017

NOTE:  "FAIR" INDICATES FEW OR NO CLOUDS BELOW 12,000 FEET
WITH NO SIGNIFICANT WEATHER AND/OR OBSTRUCTIONS TO VISIBILITY.

WYZ001-160500-
YELLOWSTONE NATIONAL PARK

CITY           SKY/WX    TMP DP  RH WIND       PRES   REMARKS
LK YELLOWSTONE   N/A     -9 -13  83 CALM      30.10S
W YELLOWSTONE  NOT AVBL

$$
WYZ002>013-054>058-071-098>099-160500-
NORTHERN WYOMING

CITY           SKY/WX    TMP DP  RH WIND       PRES   REMARKS
JACKSON        FAIR     -11 -15  84 CALM      30.14S
CODY           FAIR      16   6  65 SW7       30.06R WCI   6
GREYBULL       FAIR     -11 -15  82 SE3       30.11R
WORLAND        FAIR     -11 -14  86 CALM      30.10R
SHERIDAN       FAIR      14   2  58 MISG      30.04S
BUFFALO        FAIR      25   2  37 NW10      30.02R WCI  15
GILLETTE       FAIR      13   9  84 CALM      30.02R
HULETT         FAIR      18   3  53 S6        30.03R WCI   9
NEWCASTLE      FAIR      21  10  63 NE5       30.04R WCI  15

$$
WYZ014>020-022>026-101>103-160500-
CENTRAL WYOMING

CITY           SKY/WX    TMP DP  RH WIND       PRES   REMARKS
BIG PINEY      FAIR     -13 -17  82 W3        30.05R
PINEDALE       FAIR      -9 -13  84 CALM      30.03S
DUBOIS         NOT AVBL
LANDER         FAIR       6   2  83 SE5       30.04S WCI  -3
RIVERTON       FAIR       0  -3  87 SW8       30.05R WCI -14
CASPER         FAIR      20  17  88 SW12      30.02R WCI   8
DOUGLAS        CLOUDY    26  19  74 N7        30.02R WCI  18

$$
WYZ021-027>030-104>119-160500-
SOUTHERN WYOMING

CITY           SKY/WX    TMP DP  RH WIND       PRES   REMARKS
EVANSTON       FAIR       8   2  76 CALM      30.06R
ROCK SPRINGS   MOCLDY     4   1  88 W7        30.05R WCI  -8
RAWLINS        FOG       15  12  88 CALM      30.01R VSB 1/2
LARAMIE        CLOUDY    21  18  88 N5        29.95S WCI  15
CHEYENNE       CLOUDY    31  22  69 N6        29.96S WCI  25
TORRINGTON     CLOUDY    34  25  69 NW6       29.99S WCI  29

$$




USA.gov is the U.S. government's official web portal to all federal, state and local government web resources and services.